Weather History for St. Petersburg Airport, FL

Change the Weather History Date:

Saturday, November 10, 2012

  Actual Average Record
Temperature  
Mean Temperature 66 °F -  
Max Temperature 75 °F 78 °F 86 °F (1975)
Min Temperature 57 °F 64 °F 43 °F (1956)
Cooling Degree Days 1    
Growing Degree Days 16 (Base 50)    
Moisture  
Dew Point 52 °F    
Average Humidity 60    
Maximum Humidity 73    
Minimum Humidity 41    
Precipitation  
Precipitation 0.00 in - - ()
Sea Level Pressure  
Sea Level Pressure 30.27 in    
Wind  
Wind Speed 6 mph (ENE)    
Max Wind Speed 9 mph    
Max Gust Speed -    
Visibility 10 miles    
Events      
Averages and records for this station are not official NWS values.
T = Trace of Precipitation, MM = Missing Value Source: NWS Daily Summary

Daily Weather History Graph

Daily Weather History Graph

Search for Another Location

Airport:

Trip Planner

Search our weather history database for the weather conditions in past years. The results will help you decide how hot, cold, wet, or windy it might be!

Date:

Astronomy

Nov. 10, 2012 Rise Set
Actual Time 6:48 AM EST 5:40 PM EST
Civil Twilight 6:24 AM EST 6:04 PM EST
Nautical Twilight 5:56 AM EST 6:33 PM EST
Astronomical Twilight 5:28 AM EST 7:00 PM EST
Moon 3:09 AM EST (11/10) 3:12 PM EST (11/10)
Length of Visible Light 11h 40m
Length of Day
10h 51m
Waning Crescent, 14% of the Moon is Illuminated
Nov 10
Waning Crescent
Nov 13
New
Nov 20
First Quarter
Nov 28
Full
Dec 6
Last Quarter

Hourly Weather History & Observations

Time (EST) Temp. Dew Point Humidity Pressure Visibility Wind Dir Wind Speed Gust Speed Precip Events Conditions
12:53 AM 60.1 °F 48.9 °F 67% 30.24 in 10.0 mi ENE 5.8 mph - N/A   Clear
1:53 AM 59.0 °F 48.0 °F 67% 30.25 in 10.0 mi East 6.9 mph - N/A   Clear
2:53 AM 59.0 °F 50.0 °F 72% 30.24 in 10.0 mi NE 4.6 mph - N/A   Clear
3:53 AM 59.0 °F 50.0 °F 72% 30.25 in 10.0 mi ENE 6.9 mph - N/A   Clear
4:53 AM 59.0 °F 50.0 °F 72% 30.25 in 10.0 mi NE 6.9 mph - N/A   Scattered Clouds
5:53 AM 59.0 °F 50.0 °F 72% 30.27 in 10.0 mi NE 5.8 mph - N/A   Partly Cloudy
6:53 AM 57.2 °F 48.2 °F 72% 30.28 in 10.0 mi NE 4.6 mph - N/A   Clear
7:53 AM 61.0 °F 48.9 °F 64% 30.30 in 10.0 mi NE 6.9 mph - N/A   Clear
8:53 AM 63.0 °F 48.9 °F 60% 30.32 in 10.0 mi NE 6.9 mph - N/A   Clear
9:53 AM 66.0 °F 48.9 °F 54% 30.32 in 10.0 mi NE 5.8 mph - N/A   Clear
10:53 AM 71.1 °F 48.0 °F 44% 30.32 in 10.0 mi Calm Calm - N/A   Clear
11:53 AM 72.0 °F 48.9 °F 44% 30.29 in 10.0 mi ENE 5.8 mph - N/A   Clear
12:53 PM 75.0 °F 50.0 °F 41% 30.26 in 10.0 mi East 6.9 mph - N/A   Clear
1:53 PM 75.9 °F 51.1 °F 42% 30.23 in 10.0 mi East 8.1 mph - N/A   Partly Cloudy
2:53 PM 75.0 °F 53.1 °F 46% 30.23 in 10.0 mi East 6.9 mph - N/A   Partly Cloudy
3:53 PM 75.0 °F 53.1 °F 46% 30.23 in 10.0 mi East 8.1 mph - N/A   Scattered Clouds
4:53 PM 72.0 °F 55.0 °F 55% 30.23 in 10.0 mi East 9.2 mph - N/A   Mostly Cloudy
5:53 PM 70.0 °F 55.9 °F 61% 30.24 in 10.0 mi East 8.1 mph - N/A   Mostly Cloudy
6:53 PM 69.1 °F 55.0 °F 61% 30.26 in 10.0 mi East 5.8 mph - N/A   Mostly Cloudy
7:53 PM 68.0 °F 55.0 °F 63% 30.27 in 10.0 mi East 6.9 mph - N/A   Scattered Clouds
8:53 PM 68.0 °F 55.9 °F 65% 30.28 in 10.0 mi ENE 4.6 mph - N/A   Partly Cloudy
9:53 PM 68.0 °F 55.9 °F 65% 30.30 in 10.0 mi ENE 8.1 mph - N/A   Scattered Clouds
10:53 PM 66.2 °F 57.2 °F 73% 30.29 in 10.0 mi East 6.9 mph - N/A   Clear
11:53 PM 64.4 °F 55.4 °F 73% 30.28 in 10.0 mi ENE 5.8 mph - N/A   Clear